Location: Hurecourt
(47.9030°N, 6.0653°E)
Time: 07:22:03
(UTC+00:00)

Cosmos 1933 Rocket - Pass Details

Date: 14 July 2020
Orbit: 608 x 629 km, 82.5° (Epoch: 14 August)

Event Time Altitude Azimuth Distance (km) Brightness Sun altitude
Exits shadow 00:23:24 40° 146° (SE) 900 4.0 -19.8°
Maximum altitude 00:24:36 55° 95° (E) 738 3.9 -19.8°
Drops below altitude 10° 00:28:52 10° 18° (NNE) 1,974 7.4 -19.7°
Sets 00:31:08 0° 14° (NNE) 2,885 8.7 -19.6°
